This demonstration page uses our WeatherBlox Daily Observations layout. Learn more.

Left ArrowRight Arrow

Hourly Observations for November 11, 2021

Temp ( °F °C ) Dew Point ( °F °C ) Humidity (%) Winds ( mph kmh ) Pressure ( in mb ) Visibility ( mi km ) Precip ( " mm )
12:56 am 00:56 Clear 37 2.8 27 -2.8 67 67 WNW 12 19 29.98 1015 10 16 0.00 0.00
1:56 am 01:56 Clear 37 2.8 26 -3.3 65 65 WNW 9 15 29.98 1015 10 16 0.00 0.00
2:56 am 02:56 Clear 35 1.7 26 -3.3 70 70 WNW 13 20 29.99 1016 10 16 0.00 0.00
3:56 am 03:56 Clear 36 2.2 25 -3.9 64 64 WNW 14 22 30.00 1016 10 16 0.00 0.00
4:56 am 04:56 Clear 35 1.7 27 -2.8 72 72 WNW 14 22 30.01 1016 10 16 0.00 0.00
5:56 am 05:56 Clear 34 1.1 25 -3.9 70 70 WNW 10 17 30.02 1017 10 16 0.00 0.00
6:56 am 06:56 Clear 34 1.1 24 -4.4 67 67 WNW 14 22 30.03 1017 10 16 0.00 0.00
7:56 am 07:56 Sunny 34 1.1 24 -4.4 67 67 WNW 14 22 30.04 1017 10 16 0.00 0.00
8:56 am 08:56 Sunny 39 3.9 25 -3.9 57 57 WNW 18 30 30.05 1018 10 16 0.00 0.00
9:56 am 09:56 Sunny 43 6.1 25 -3.9 49 49 WNW 23 37 30.03 1017 10 16 0.00 0.00
10:56 am 10:56 Sunny 46 7.8 23 -5 40 40 NW 25 41 30.03 1017 10 16 0.00 0.00
11:56 am 11:56 Sunny 48 8.9 21 -6.1 34 34 WNW 30 48 30.00 1016 10 16 0.00 0.00
12:56 pm 12:56 Sunny 50 10 20 -6.7 30 30 WNW 24 39 29.98 1015 10 16 0.00 0.00
1:56 pm 13:56 Mostly Sunny 50 10 15 -9.4 25 25 WNW 24 39 29.94 1014 10 16 0.00 0.00
2:56 pm 14:56 Sunny 51 10.6 13 -10.6 22 22 W 28 44 29.92 1013 10 16 0.00 0.00
3:56 pm 15:56 Sunny 50 10 12 -11.1 22 22 WNW 31 50 29.92 1013 10 16 0.00 0.00
4:56 pm 16:56 Sunny 47 8.3 13 -10.6 25 25 WNW 21 33 29.91 1013 10 16 0.00 0.00
5:56 pm 17:56 Clear 45 7.2 12 -11.1 26 26 W 14 22 29.92 1013 10 16 0.00 0.00
6:56 pm 18:56 Clear 42 5.6 14 -10 32 32 W 12 19 29.93 1014 10 16 0.00 0.00
7:56 pm 19:56 Clear 42 5.6 14 -10 32 32 WNW 15 24 29.94 1014 10 16 0.00 0.00
8:56 pm 20:56 Clear 40 4.4 16 -8.9 38 38 NW 13 20 29.97 1015 10 16 0.00 0.00
9:56 pm 21:56 Clear 40 4.4 15 -9.4 36 36 NW 20 31 29.98 1015 10 16 0.00 0.00
10:56 pm 22:56 Clear 40 4.4 15 -9.4 36 36 NW 22 35 29.98 1015 10 16 0.00 0.00
11:56 pm 23:56 Clear 38 3.3 16 -8.9 41 41 NW 24 39 29.99 1016 10 16 0.00 0.00

Powered by AerisWeather